Home > Weather > Traun > Past weeks

Flag for Austria Weather for the Past 2 Weeks in Traun, Upper Austria, Austria

Now
54 °F

Sunny.


Feels Like: 50 °F
Forecast: 47 / 62 °F
Wind: 13 mph from East

Location: Linz / Hoersching-Flughafen

Current Time: May 1, 2016 at 9:08:44 AM

Latest Report: May 1, 2016 at 8:20 AM


Visibility: 10 mi

Pressure: 29.92 "Hg

Humidity: 58%

Dew Point: 39 °F

Location of TraunLocation

Historic Weather in Traun — Graph

°F

Traun Temperature Yesterday

Maximum temperature yesterday: 66 °F (at 2:50 PM)
Minimum temperature yesterday: 36 °F (at 5:20 AM)
Average temperature yesterday: 53 °F

High & Low Weather Summary for the Past Weeks

 TemperatureHumidityPressure
High68 °F (Apr 22, 3:50 PM)100% (Apr 17, 10:20 PM)30.36 "Hg (Apr 17, 10:20 PM)
Low30 °F (Apr 28, 1:20 AM)21% (Apr 30, 5:20 PM)29.59 "Hg (Apr 17, 4:50 AM)
Average48 °F68%29.96 "Hg
* Reported Apr 16 6:20 AM — May 1 6:20 AM, Traun, Weather by CustomWeather, © 2016

Note: Actual official high and low records may vary slightly from our data, if they occured in-between our weather recording intervals... More about our weather records

Advertising

Traun Weather History for the Previous 24 Hours

Scroll right to see more
 ConditionsComfort  
Time TempWeatherWind HumidityBarometerVisibility
6:20 AM
Sun, May 1
50 °FClear.10 mph67%29.89 "Hg10 mi
5:50 AM52 °FClear.10 mph58%29.89 "Hg10 mi
5:20 AM52 °FClear.12 mph58%29.89 "Hg10 mi
4:20 AM52 °FClear.12 mph58%29.89 "Hg10 mi
3:50 AM52 °FClear.14 mph58%29.89 "Hg10 mi
3:20 AM50 °FPassing clouds.13 mph62%29.89 "HgN/A
2:50 AM50 °FOvercast.10 mph62%29.89 "HgN/A
2:20 AM52 °FPassing clouds.9 mph54%29.92 "HgN/A
1:50 AM52 °FPassing clouds.10 mph54%29.89 "HgN/A
1:20 AM52 °FPassing clouds.12 mph54%29.89 "HgN/A
12:50 AM50 °FPassing clouds.9 mph58%29.92 "HgN/A
12:20 AM52 °FPassing clouds.9 mph54%29.92 "HgN/A
11:50 PM
Sat, Apr 30
52 °FPassing clouds.9 mph54%29.92 "HgN/A
11:20 PM52 °FClear.9 mph58%29.92 "Hg10 mi
10:50 PM54 °FClear.10 mph51%29.92 "Hg10 mi
10:20 PM54 °FClear.10 mph51%29.92 "Hg10 mi
9:50 PM57 °FClear.12 mph44%29.92 "Hg10 mi
9:20 PM57 °FClear.10 mph44%29.92 "Hg10 mi
8:50 PM59 °FSunny.12 mph42%29.92 "Hg10 mi
8:20 PM61 °FSunny.10 mph36%29.92 "Hg10 mi
7:50 PM63 °FSunny.12 mph34%29.92 "Hg10 mi
7:20 PM63 °FPartly sunny.10 mph34%29.92 "HgN/A
6:50 PM64 °FScattered clouds.13 mph30%29.92 "HgN/A
6:20 PM66 °FScattered clouds.13 mph24%29.92 "HgN/A
5:50 PM66 °FPassing clouds.13 mph22%29.92 "HgN/A
5:20 PM66 °FPassing clouds.14 mph21%29.92 "HgN/A
4:50 PM66 °FPassing clouds.13 mph24%29.92 "HgN/A
4:20 PM66 °FPassing clouds.10 mph24%29.95 "HgN/A
3:50 PM66 °FPassing clouds.12 mph26%29.95 "HgN/A
3:20 PM66 °FPassing clouds.12 mph26%29.98 "HgN/A
2:50 PM66 °FPassing clouds.9 mph32%29.98 "HgN/A
2:20 PM64 °FPassing clouds.7 mph28%29.98 "HgN/A
1:50 PM64 °FPassing clouds.7 mph32%30.01 "HgN/A
1:20 PM63 °FPassing clouds.7 mph34%30.01 "HgN/A
12:50 PM61 °FPassing clouds.9 mph39%30.01 "HgN/A
12:20 PM61 °FPassing clouds.7 mph42%30.04 "HgN/A
11:50 AM59 °FPassing clouds.8 mph48%30.04 "HgN/A
11:20 AM57 °FPassing clouds.8 mph48%30.04 "HgN/A
10:50 AM55 °FSunny.9 mph51%30.07 "Hg10 mi
10:20 AM54 °FSunny.10 mph54%30.07 "Hg10 mi
9:50 AM52 °FPassing clouds.8 mph54%30.07 "HgN/A
9:20 AM50 °FSunny.10 mph58%30.07 "Hg10 mi
Weather by CustomWeather, © 2016

See weather overviewHow to use our weather pages